This demonstration page uses our WeatherBlox Daily Observations layout. Learn more.

Left ArrowRight Arrow

41.12389, -100.76542

Hourly Observations for July 12, 2016

Temp ( °F °C ) Dew Point ( °F °C ) Humidity (%) Winds ( mph kmh ) Pressure ( in mb ) Visibility ( mi km ) Precip ( " mm )
12:53 am 00:53 Clear 56 13.3 46 7.8 70 70 NW 10 17 29.81 1009 10 16 0.00 0.00
1:53 am 01:53 Clear 64 17.8 41 5 43 43 N 12 19 29.78 1008 10 16 0.00 0.00
2:53 am 02:53 Clear 63 17.2 42 5.6 47 47 N 17 28 29.77 1008 10 16 0.00 0.00
3:53 am 03:53 Clear 62 16.7 43 6.1 50 50 N 17 28 29.76 1008 10 16 0.00 0.00
4:53 am 04:53 Clear 58 14.4 45 7.2 62 62 SSE 7 11 29.81 1009 10 16 0.00 0.00
5:53 am 05:53 Clear 53 11.7 47 8.3 80 80 E 6 9 29.85 1011 10 16 0.00 0.00
6:53 am 06:53 Sunny 54 12.2 48 8.9 80 80 E 5 7 29.87 1012 10 16 0.00 0.00
7:53 am 07:53 Sunny 58 14.4 49 9.4 72 72 SE 5 7 29.91 1013 10 16 0.00 0.00
8:53 am 08:53 Sunny 65 18.3 50 10 59 59 SE 5 7 29.92 1013 10 16 0.00 0.00
9:53 am 09:53 Sunny 70 21.1 49 9.4 47 47 ESE 8 13 29.93 1013 10 16 0.00 0.00
10:53 am 10:53 Sunny 75 23.9 48 8.9 39 39 SSE 7 11 29.92 1013 10 16 0.00 0.00
11:53 am 11:53 Sunny 79 26.1 49 9.4 35 35 ESE 10 17 29.91 1013 10 16 0.00 0.00
12:53 pm 12:53 Mostly Sunny 81 27.2 50 10 34 34 VRB 5 7 29.89 1012 10 16 0.00 0.00
1:53 pm 13:53 Sunny 85 29.4 49 9.4 29 29 SSE 12 19 29.85 1011 10 16 0.00 0.00
2:53 pm 14:53 Sunny 86 30 47 8.3 26 26 SSW 9 15 29.83 1010 10 16 0.00 0.00
3:53 pm 15:53 Sunny 87 30.6 47 8.3 25 25 S 13 20 29.82 1010 10 16 0.00 0.00
4:53 pm 16:53 Sunny 89 31.7 48 8.9 24 24 S 10 17 29.79 1009 10 16 0.00 0.00
5:53 pm 17:53 Sunny 88 31.1 50 10 27 27 S 12 19 29.78 1008 10 16 0.00 0.00
6:53 pm 18:53 Sunny 87 30.6 54 12.2 32 32 VRB 7 11 29.77 1008 10 16 0.00 0.00
7:53 pm 19:53 Sunny 81 27.2 61 16.1 51 51 ESE 8 13 29.76 1008 10 16 0.00 0.00
8:53 pm 20:53 Sunny 76 24.4 61 16.1 60 60 SE 8 13 29.76 1008 10 16 0.00 0.00
9:53 pm 21:53 Clear 70 21.1 61 16.1 73 73 ESE 9 15 29.78 1009 10 16 0.00 0.00
10:53 pm 22:53 Clear 69 20.6 61 16.1 76 76 ESE 7 11 29.80 1009 10 16 0.00 0.00
11:53 pm 23:53 Clear 69 20.6 62 16.7 78 78 ESE 7 11 29.78 1009 10 16 0.00 0.00

Powered by AerisWeather